GW3691 Weather Reports


Display with metric or nautical units.
time (UTC)temp
F
wind
direction
speed
MPH
gust
MPH
rain 1hr
in
rain 24hr
in
rain mn
in
humidity
%
barometer
mb
20260901114838 77 147 0.0 0.0 0.00 0.00 0.00 96 1020.5
20260901114338 76 147 0.0 0.0 0.00 0.00 0.00 96 1020.6
20260901113836 76 147 0.0 0.0 0.00 0.00 0.00 96 1020.6
20260901113335 76 147 0.0 0.0 0.00 0.00 0.00 96 1020.4
20260901112831 76 147 0.0 0.0 0.00 0.00 0.00 96 1020.7
20260901112330 75 147 0.0 0.0 0.00 0.00 0.00 96 1020.4
20260901111825 75 147 0.0 0.0 0.00 0.00 0.00 96 1020.2
20260901111324 76 147 0.0 0.0 0.00 0.00 0.00 96 1020.4
20260901110823 76 147 0.0 0.0 0.00 0.00 0.00 96 1020.1
20260901110319 76 147 0.0 0.0 0.00 0.00 0.00 96 1020.1
20260901105815 76 147 0.0 0.0 0.00 0.00 0.00 96 1020.1
20260901105315 76 147 0.0 0.0 0.00 0.00 0.00 96 1020.1
20260901104811 76 147 0.0 0.0 0.00 0.00 0.00 96 1019.8
20260901104306 76 147 0.0 0.0 0.00 0.00 0.00 96 1019.8
20260901103801 76 147 0.0 0.0 0.00 0.00 0.00 96 1019.8
20260901103255 76 147 0.0 0.0 0.00 0.00 0.00 96 1019.8
20260901102751 76 147 0.0 0.0 0.00 0.00 0.00 96 1019.9
20260901102250 76 147 0.0 0.0 0.00 0.00 0.00 96 1019.7
20260901101746 75 147 0.0 0.0 0.00 0.00 0.00 96 1019.8
20260901101245 76 147 0.0 0.0 0.00 0.00 0.00 96 1019.9
20260901100745 76 147 0.0 0.0 0.00 0.00 0.00 96 1019.7
20260901100240 75 147 0.0 0.0 0.00 0.00 0.00 96 1019.9
20260901095738 76 147 0.0 0.0 0.00 0.00 0.00 96 1019.6
20260901095236 76 147 0.0 0.0 0.00 0.00 0.00 96 1019.7
20260901094731 76 147 0.0 0.0 0.00 0.00 0.00 96 1019.5
20260901094226 76 147 0.0 0.0 0.00 0.00 0.00 96 1019.8
20260901093721 76 147 0.0 0.0 0.00 0.00 0.00 96 1019.7
20260901093220 76 147 0.0 0.0 0.00 0.00 0.00 96 1019.8
20260901092716 76 147 0.0 0.0 0.00 0.00 0.00 96 1019.6
20260901092212 76 147 0.0 0.0 0.00 0.00 0.00 96 1019.7
20260901091707 76 147 0.0 0.0 0.00 0.00 0.00 96 1019.5
20260901091202 76 147 0.0 0.0 0.00 0.00 0.00 96 1019.9
20260901090656 76 147 0.0 0.0 0.00 0.00 0.00 96 1019.5
20260901090152 76 147 0.0 0.0 0.00 0.00 0.00 96 1019.6
20260901085648 76 147 0.0 0.0 0.00 0.00 0.00 96 1019.6
20260901085143 76 147 0.0 0.0 0.00 0.00 0.00 96 1019.7
20260901084639 76 147 0.0 0.0 0.00 0.00 0.00 96 1019.4
20260901084135 76 147 0.0 0.0 0.00 0.00 0.00 96 1019.8
20260901083630 76 147 0.0 0.0 0.00 0.00 0.00 96 1019.6
20260901083128 76 147 0.0 0.0 0.00 0.00 0.00 96 1019.7
20260901082623 76 147 0.0 0.0 0.00 0.00 0.00 96 1019.7
20260901082118 76 147 0.0 0.0 0.00 0.00 0.00 96 1019.7
20260901081613 76 147 0.0 0.0 0.00 0.00 0.00 96 1019.4
20260901081114 77 147 0.0 0.0 0.00 0.00 0.00 96 1019.7
20260901080608 77 147 0.0 0.0 0.00 0.00 0.00 96 1019.6
20260901080107 77 147 0.0 0.0 0.00 0.00 0.00 96 1019.6
20260901075603 77 147 0.0 0.0 0.00 0.00 0.00 96 1020.0
20260901075102 77 147 0.0 0.0 0.00 0.00 0.00 96 1019.7
20260901074601 77 147 0.0 0.0 0.00 0.00 0.00 96 1019.6
20260901074057 77 146 0.0 0.0 0.00 0.00 0.00 96 1020.0
20260901073554 77 146 0.0 0.0 0.00 0.00 0.00 96 1020.0
20260901073053 77 149 0.0 0.0 0.00 0.00 0.00 96 1019.9
20260901072549 77 149 0.0 0.0 0.00 0.00 0.00 96 1020.0
20260901072043 77 149 0.0 0.0 0.00 0.00 0.00 96 1020.2
20260901071538 77 149 0.0 0.0 0.00 0.00 0.00 96 1020.2
20260901071036 77 149 0.0 0.0 0.00 0.00 0.00 95 1020.1
20260901070532 77 148 0.0 0.0 0.00 0.00 0.00 95 1020.2
20260901070027 77 148 0.0 0.0 0.00 0.00 0.00 95 1020.2
20260901065521 77 149 0.0 0.0 0.00 0.00 0.00 95 1020.1
20260901065016 77 167 0.0 0.0 0.00 0.00 0.00 96 1019.9
20260901064513 77 167 0.0 0.0 0.00 0.00 0.00 96 1020.2
20260901064009 77 165 0.0 0.0 0.00 0.00 0.00 96 1020.3
20260901063506 77 164 0.0 0.0 0.00 0.00 0.00 96 1020.1
20260901063001 77 164 0.0 0.0 0.00 0.00 0.00 95 1020.4
20260901062457 77 164 0.0 0.0 0.00 0.00 0.00 96 1020.4
20260901061953 77 164 0.0 0.0 0.00 0.00 0.00 96 1020.3
20260901061449 77 164 0.0 0.0 0.00 0.00 0.00 96 1020.1
20260901060948 77 164 0.0 0.0 0.00 0.00 0.00 96 1020.5
20260901060438 77 164 0.0 0.0 0.00 0.00 0.00 96 1020.6
20260901055938 77 164 0.0 0.0 0.00 0.00 0.00 96 1020.7
20260901055434 77 164 0.0 0.0 0.00 0.00 0.00 96 1020.8
20260901054931 77 164 0.0 0.0 0.00 0.00 0.00 96 1020.6
20260901054428 77 164 0.0 0.0 0.00 0.00 0.00 96 1020.9
20260901053924 77 164 0.0 0.0 0.00 0.00 0.00 95 1021.1
20260901053419 77 164 0.0 0.0 0.00 0.00 0.00 96 1021.2
20260901052914 77 164 0.0 0.0 0.00 0.00 0.00 95 1021.0
20260901052409 77 164 0.0 0.0 0.00 0.00 0.00 95 1021.1
20260901051908 77 164 0.0 0.0 0.00 0.00 0.00 95 1021.1
20260901051403 77 164 0.0 0.0 0.00 0.00 0.00 96 1021.2
20260901050858 78 164 0.0 0.0 0.00 0.00 0.00 96 1021.3
20260901050354 78 164 0.0 0.0 0.00 0.00 0.00 95 1021.2
20260901045848 78 164 0.0 0.0 0.00 0.00 0.00 95 1021.2
20260901045348 78 164 0.0 0.0 0.00 0.00 0.00 95 1021.2
20260901044844 78 165 0.0 0.0 0.00 0.00 0.00 95 1021.4
20260901044340 78 165 0.0 0.0 0.00 0.00 0.00 95 1021.4
20260901043835 78 165 0.0 0.0 0.00 0.00 0.00 95 1021.1
20260901043331 78 165 0.0 0.0 0.00 0.00 0.00 95 1021.1
20260901042830 78 165 0.0 0.0 0.00 0.00 0.00 95 1021.0
20260901042325 78 165 0.0 0.0 0.00 0.00 0.00 95 1021.3
20260901041821 78 165 0.0 0.0 0.00 0.00 0.00 95 1021.1
20260901041316 78 165 0.0 0.0 0.00 0.00 0.00 95 1021.2
20260901040810 78 165 0.0 0.0 0.00 0.00 0.00 95 1021.3
20260901040309 78 165 0.0 0.0 0.00 0.00 0.00 95 1021.3
20260901035809 78 165 0.0 0.0 0.00 0.07 0.07 95 1021.1
20260901035307 78 165 0.0 0.0 0.00 0.07 0.07 94 1021.3
20260901034806 78 165 0.0 0.0 0.00 0.07 0.07 94 1021.3
20260901034301 79 165 0.0 0.0 0.00 0.07 0.07 94 1021.1
20260901033756 79 165 0.0 0.0 0.00 0.07 0.07 94 1021.3
20260901033255 79 165 0.0 0.0 0.00 0.07 0.07 94 1021.3
20260901032754 79 165 0.0 0.0 0.00 0.07 0.07 94 1021.5
20260901032253 79 165 0.0 0.0 0.00 0.07 0.07 94 1021.3
20260901031749 79 165 0.0 0.0 0.00 0.07 0.07 94 1021.3
20260901031244 79 165 0.0 0.0 0.00 0.07 0.07 93 1021.7
20260901030739 79 165 0.0 0.0 0.00 0.07 0.07 93 1021.4
20260901030234 79 164 0.0 0.0 0.00 0.07 0.07 93 1021.5
20260901025728 80 162 0.0 0.0 0.00 0.07 0.07 93 1021.6
20260901025223 80 155 0.0 0.0 0.00 0.07 0.07 93 1021.2
20260901024723 80 160 0.0 0.0 0.00 0.07 0.07 92 1021.5
20260901024222 80 161 0.0 0.0 0.00 0.07 0.07 92 1021.4
20260901023715 80 149 0.0 0.0 0.00 0.07 0.07 92 1021.5
20260901023210 80 152 0.0 0.0 0.00 0.07 0.07 92 1021.6
20260901022706 80 158 0.0 0.0 0.00 0.07 0.07 92 1021.7
20260901022201 80 158 0.0 0.0 0.00 0.07 0.07 92 1021.6
20260901021656 80 152 0.0 0.0 0.00 0.07 0.07 92 1021.6
20260901021151 80 151 0.0 0.0 0.00 0.07 0.07 92 1021.5
20260901020647 80 157 0.0 0.0 0.00 0.07 0.07 91 1021.4
20260901020142 80 148 0.0 0.0 0.00 0.07 0.07 91 1021.3
20260901015637 80 162 0.0 0.0 0.00 0.07 0.07 91 1021.5
20260901015137 80 153 0.0 0.0 0.00 0.07 0.07 91 1021.3
20260901014632 80 143 0.0 0.0 0.00 0.07 0.07 91 1021.0
20260901014128 80 145 0.0 1.0 0.00 0.07 0.07 91 1021.2
20260901013624 80 149 0.0 0.0 0.00 0.07 0.07 91 1021.1
20260901013119 80 146 0.0 0.0 0.00 0.07 0.07 91 1021.1
20260901012619 80 154 0.0 0.0 0.00 0.07 0.07 91 1021.1
20260901012114 80 144 0.0 0.0 0.00 0.07 0.07 91 1021.0
20260901011610 80 147 0.0 0.0 0.00 0.07 0.07 91 1021.0
20260901011108 81 148 0.0 0.0 0.00 0.07 0.07 91 1020.7
20260901010603 81 156 0.0 0.0 0.00 0.07 0.07 91 1020.6
20260901005557 81 139 0.0 0.0 0.00 0.07 0.07 90 1020.7
20260901005052 81 151 0.0 0.0 0.00 0.07 0.07 90 1020.6
20260901004551 81 154 0.0 0.0 0.00 0.07 0.07 90 1020.8
20260901004047 81 152 0.0 0.0 0.00 0.07 0.07 90 1020.6
20260901003542 81 147 0.0 0.0 0.00 0.07 0.07 90 1020.5
20260901003040 81 127 0.0 1.0 0.00 0.07 0.07 89 1020.3
20260901002539 81 148 0.0 1.0 0.00 0.07 0.07 89 1020.2
20260901002035 81 148 0.0 0.0 0.00 0.07 0.07 89 1020.4
20260901001530 81 148 0.0 0.0 0.00 0.07 0.07 88 1020.5
20260901001025 81 140 0.0 0.0 0.00 0.07 0.07 88 1020.6
20260901000519 81 141 0.0 1.0 0.00 0.07 0.07 88 1020.5
20260901000015 81 131 0.0 0.0 0.00 0.07 0.07 87 1020.4
20260831235509 81 153 0.0 0.0 0.00 0.07 0.07 87 1020.4
20260831235005 81 109 1.0 2.0 0.00 0.07 0.07 87 1020.2
20260831234459 82 159 1.0 1.0 0.00 0.07 0.07 87 1020.2
20260831233955 82 144 0.0 0.0 0.00 0.07 0.07 86 1020.0
20260831233449 82 140 0.0 1.0 0.00 0.07 0.07 86 1020.2
20260831232945 82 152 0.0 0.0 0.00 0.07 0.07 86 1020.3
20260831232441 82 142 1.0 1.0 0.00 0.07 0.07 86 1020.3
20260831231936 82 125 0.0 0.0 0.00 0.07 0.07 86 1020.3
20260831231433 83 141 0.0 0.0 0.00 0.07 0.07 85 1020.3
20260831230928 83 149 0.0 0.0 0.00 0.07 0.07 84 1020.6
20260831230422 83 137 0.0 0.0 0.00 0.07 0.07 84 1020.4
20260831225917 83 138 0.0 0.0 0.00 0.07 0.07 83 1020.4
20260831225413 83 151 0.0 0.0 0.00 0.07 0.07 82 1020.6
20260831224907 83 149 0.0 0.0 0.00 0.07 0.07 82 1020.5
20260831224402 84 125 0.0 1.0 0.00 0.07 0.07 81 1020.7
20260831223856 84 145 2.0 2.0 0.00 0.07 0.07 80 1020.5
20260831223352 85 130 0.0 0.0 0.00 0.07 0.07 78 1020.5
20260831222849 86 60 5.0 9.0 0.00 0.07 0.07 77 1020.5
20260831222344 86 131 1.0 1.0 0.00 0.07 0.07 77 1020.6
20260831221839 85 145 1.0 2.0 0.00 0.07 0.07 78 1020.4
20260831221335 86 121 1.0 1.0 0.00 0.07 0.07 78 1020.5
20260831220830 85 119 3.0 3.0 0.00 0.07 0.07 78 1020.5
20260831220325 85 131 1.0 1.0 0.00 0.07 0.07 80 1020.6
20260831215820 85 145 0.0 1.0 0.00 0.07 0.07 81 1020.5
20260831215316 86 138 1.0 1.0 0.00 0.07 0.07 79 1020.6
20260831214812 86 147 0.0 1.0 0.00 0.07 0.07 78 1020.9
20260831214310 86 93 1.0 3.0 0.00 0.07 0.07 78 1020.6
20260831213805 86 156 2.0 2.0 0.00 0.07 0.07 77 1020.7
20260831213301 86 129 1.0 1.0 0.00 0.07 0.07 78 1020.7
20260831212756 87 60 5.0 6.0 0.00 0.07 0.07 77 1020.1
20260831212253 88 161 1.0 1.0 0.00 0.07 0.07 77 1020.5
20260831211751 88 148 1.0 2.0 0.00 0.07 0.07 77 1020.4
20260831211246 88 128 1.0 2.0 0.00 0.07 0.07 77 1020.6
20260831210740 87 109 2.0 3.0 0.00 0.07 0.07 78 1020.4
20260831210236 86 127 1.0 2.0 0.00 0.07 0.07 79 1020.4
20260831205735 86 122 0.0 1.0 0.00 0.07 0.07 80 1020.7
20260831205232 86 81 2.0 2.0 0.00 0.07 0.07 80 1020.6
20260831204726 85 134 0.0 1.0 0.00 0.07 0.07 82 1020.8
20260831204226 84 147 1.0 1.0 0.00 0.07 0.07 83 1020.7
20260831203725 84 102 3.0 5.0 0.00 0.07 0.07 83 1020.9
20260831203225 84 156 1.0 1.0 0.00 0.07 0.07 84 1020.8
20260831202723 84 133 2.0 3.0 0.00 0.07 0.07 83 1020.9
20260831202218 84 113 1.0 1.0 0.00 0.07 0.07 83 1020.7
20260831201713 84 135 1.0 1.0 0.00 0.07 0.07 83 1020.7
20260831201212 85 88 1.0 1.0 0.00 0.07 0.07 83 1020.9
20260831200708 85 145 1.0 1.0 0.00 0.07 0.07 82 1020.8
20260831200203 87 141 2.0 2.0 0.00 0.07 0.07 80 1020.9
20260831195658 87 143 0.0 1.0 0.00 0.07 0.07 79 1020.7
20260831195154 87 135 1.0 1.0 0.00 0.07 0.07 78 1020.6
20260831194648 87 112 1.0 2.0 0.00 0.07 0.07 78 1020.5
20260831194144 89 110 1.0 2.0 0.00 0.07 0.07 77 1020.6
20260831193638 89 100 5.0 7.0 0.00 0.07 0.07 75 1020.6
20260831193133 91 143 2.0 3.0 0.00 0.07 0.07 74 1021.0
20260831192628 91 116 2.0 3.0 0.00 0.07 0.07 72 1020.5
20260831192124 90 105 2.0 2.0 0.00 0.07 0.07 75 1020.5
20260831191620 91 139 2.0 3.0 0.00 0.07 0.07 74 1020.7
20260831191115 91 173 1.0 1.0 0.00 0.07 0.07 75 1020.5
20260831190610 91 118 2.0 6.0 0.00 0.07 0.07 74 1020.7
20260831190109 91 18 1.0 2.0 0.00 0.07 0.07 75 1020.8
20260831185605 91 130 1.0 1.0 0.00 0.07 0.07 74 1020.6
20260831185100 91 97 0.0 0.0 0.00 0.07 0.07 74 1020.8
20260831184554 91 135 3.0 5.0 0.00 0.07 0.07 71 1020.7
20260831184049 91 91 2.0 3.0 0.00 0.07 0.07 73 1020.7
20260831183548 91 59 2.0 2.0 0.00 0.07 0.07 74 1020.7
20260831183043 91 102 3.0 5.0 0.00 0.07 0.07 72 1020.7
20260831182543 91 95 2.0 2.0 0.00 0.07 0.07 73 1020.9
20260831182038 91 139 1.0 2.0 0.00 0.07 0.07 73 1021.0
20260831181533 90 337 3.0 7.0 0.00 0.07 0.07 73 1021.0
20260831181032 91 57 3.0 3.0 0.00 0.07 0.07 73 1021.2
20260831180527 91 158 1.0 1.0 0.00 0.07 0.07 73 1021.2
20260831180022 90 149 2.0 3.0 0.00 0.07 0.07 74 1021.3
20260831175518 90 117 2.0 2.0 0.00 0.07 0.07 74 1021.1
20260831175015 89 149 1.0 2.0 0.00 0.07 0.07 74 1021.2
20260831174514 89 76 2.0 2.0 0.00 0.07 0.07 74 1021.6
20260831174009 89 150 3.0 3.0 0.00 0.07 0.07 74 1021.3
20260831173507 90 158 1.0 1.0 0.00 0.07 0.07 72 1021.4
20260831173004 91 102 0.0 1.0 0.00 0.07 0.07 72 1021.3
20260831172459 91 91 1.0 2.0 0.00 0.07 0.07 72 1021.5
20260831171954 91 130 1.0 1.0 0.00 0.07 0.07 73 1021.6
20260831171449 91 127 2.0 3.0 0.00 0.07 0.07 70 1021.6
20260831170946 89 127 1.0 1.0 0.00 0.07 0.07 72 1021.9
20260831170442 89 80 2.0 3.0 0.00 0.07 0.07 74 1021.8
20260831165938 88 135 1.0 1.0 0.00 0.07 0.07 75 1022.1
20260831165428 88 32 3.0 5.0 0.00 0.07 0.07 74 1021.8
20260831164925 87 141 1.0 1.0 0.00 0.07 0.07 76 1021.9
20260831164420 89 153 1.0 1.0 0.00 0.07 0.07 75 1021.9
20260831163915 88 81 1.0 1.0 0.00 0.07 0.07 75 1022.0
20260831163411 88 141 0.0 0.0 0.00 0.07 0.07 75 1021.9
20260831162909 87 147 1.0 1.0 0.00 0.07 0.07 77 1022.2
20260831162405 87 99 1.0 2.0 0.00 0.07 0.07 76 1022.5
20260831161903 87 155 1.0 2.0 0.00 0.07 0.07 78 1022.2
20260831161400 87 122 1.0 1.0 0.00 0.07 0.07 78 1022.3
20260831160855 87 146 0.0 0.0 0.00 0.07 0.07 80 1022.4
20260831160349 84 125 1.0 3.0 0.00 0.07 0.07 85 1022.3
20260831155845 84 165 0.0 0.0 0.00 0.07 0.07 88 1022.4
20260831155344 84 168 0.0 0.0 0.00 0.07 0.07 88 1022.7
20260831154840 83 157 0.0 0.0 0.00 0.07 0.07 88 1022.8
20260831154337 83 189 1.0 2.0 0.00 0.07 0.07 88 1022.6
20260831153835 83 151 2.0 2.0 0.00 0.07 0.07 87 1022.8
20260831153331 83 180 1.0 2.0 0.05 0.07 0.07 87 1022.7
20260831152827 83 149 1.0 1.0 0.24 0.07 0.07 86 1022.8
20260831152322 85 148 0.0 1.0 0.31 0.06 0.06 85 1022.7
20260831151817 85 142 0.0 0.0 0.17 0.03 0.03 82 1022.4
20260831151316 86 160 0.0 0.0 0.00 0.00 0.00 80 1022.8
20260831150812 86 151 1.0 2.0 0.00 0.00 0.00 78 1022.6
20260831150307 87 148 0.0 1.0 0.00 0.00 0.00 79 1022.6
20260831145806 87 146 0.0 0.0 0.00 0.00 0.00 78 1022.4
20260831145306 87 148 0.0 0.0 0.00 0.00 0.00 76 1022.4
20260831144758 88 141 0.0 0.0 0.00 0.00 0.00 75 1022.4
20260831144254 89 111 1.0 1.0 0.00 0.00 0.00 75 1022.4
20260831143754 88 151 0.0 1.0 0.00 0.00 0.00 77 1022.2
20260831143249 88 160 1.0 1.0 0.00 0.00 0.00 77 1022.0
20260831142744 86 165 0.0 0.0 0.00 0.00 0.00 79 1022.0
20260831142239 86 160 0.0 0.0 0.00 0.00 0.00 79 1022.0
20260831141734 85 151 0.0 0.0 0.00 0.00 0.00 80 1022.1
20260831141229 85 147 0.0 0.0 0.00 0.00 0.00 81 1022.1
20260831140729 85 153 0.0 0.0 0.00 0.00 0.00 81 1022.2
20260831140223 85 164 0.0 1.0 0.00 0.00 0.00 80 1022.0
20260831135721 85 151 0.0 0.0 0.00 0.00 0.00 80 1021.6
20260831135217 85 124 0.0 1.0 0.00 0.00 0.00 82 1021.9
20260831134712 85 143 0.0 1.0 0.00 0.00 0.00 82 1021.8
20260831134209 84 138 0.0 0.0 0.00 0.00 0.00 84 1021.6
20260831133707 85 155 0.0 0.0 0.00 0.00 0.00 82 1021.6
20260831133202 86 161 0.0 0.0 0.00 0.00 0.00 81 1021.8
20260831132657 85 145 0.0 1.0 0.00 0.00 0.00 83 1021.6
20260831132157 85 147 0.0 0.0 0.00 0.00 0.00 82 1021.6
20260831131651 86 143 0.0 0.0 0.00 0.00 0.00 82 1021.7
20260831131148 85 148 0.0 0.0 0.00 0.00 0.00 83 1021.5
20260831130643 85 153 0.0 0.0 0.00 0.00 0.00 83 1021.6
20260831130139 85 148 0.0 0.0 0.00 0.00 0.00 82 1021.6
20260831125637 85 130 1.0 2.0 0.00 0.00 0.00 84 1021.7
20260831125133 84 150 0.0 0.0 0.00 0.00 0.00 85 1021.4
20260831124628 83 146 0.0 0.0 0.00 0.00 0.00 88 1021.2
20260831124125 81 117 0.0 1.0 0.00 0.00 0.00 91 1021.2
20260831123624 80 143 0.0 0.0 0.00 0.00 0.00 93 1021.3
20260831123123 80 150 0.0 0.0 0.00 0.00 0.00 95 1021.2
20260831122622 80 147 0.0 0.0 0.00 0.00 0.00 95 1021.4
20260831122119 79 141 0.0 0.0 0.00 0.00 0.00 96 1021.2
20260831121618 78 172 0.0 0.0 0.00 0.00 0.00 96 1021.3
20260831121115 78 163 0.0 0.0 0.00 0.00 0.00 96 1021.1
20260831120614 77 163 0.0 0.0 0.00 0.00 0.00 96 1021.2
20260831120109 76 164 0.0 0.0 0.00 0.00 0.00 96 1021.0
20260831115605 75 165 0.0 0.0 0.00 0.00 0.00 96 1021.1
20260831115101 75 165 0.0 0.0 0.00 0.00 0.00 96 1020.9